Showing default

FFLY-2, 65322

Orbit data source: Space-Track

FFLY-2, 65322 is a payload satellite owned by Pixxel (US) in SSO that was launched on Tue, 26 Aug 2025 UTC via an FALCON 9 launch vehicle from the Air Force Western Test Range (AFWTR). Payload-class satellites include a variety of spacecraft equipped with specific instruments for various scientific and technological missions. These include communications satellites like Starlink; space stations such as the ISS; scientific satellites like the Hubble; Earth observation satellites from companies like Planet Labs, Umbra, and HawkEye 360; GPS; miniature CubeSats for education and research; and military/defense satellites.

Loading next visibility...
Identifier
65322, 2025-188H
Orbit
SSO
Country
Flag of USUS
Related business
Manufacturer
Pixxel
Mission
Operational Commercial Imaging
Bus & Motor
FIREFLY, Unknown motor
Mass
60 kg wet, 60 kg dry
Launch date (UTC)
2025-08-26 (10 months ago)
Launch vehicle
FALCON 9
Launch site
Air Force Western Test Range (AFWTR)
Object type
Payload
Rocket body
Debris
Shape & HBR
Box + 2 Pan, 14.5 m
Radar Cross Section
0.338 m², Medium (>0.1 m² and < 1m²)

Expand to show TLE details & history
Last TLE update: 13 hours ago

TLE from 13 hours ago
0 FFLY-2
1 65322U 25188H   26171.43630766  .00001136  00000-0  11519-3 0  9995
2 65322  97.7369 246.6181 0013517 112.1500 248.1155 14.92788783 44399
Epoch: 2026-06-20T10:28Z
TLE epoch observation values (Epoch: 2026-06-20T10:28:16.981Z)
Latitude
-0.00009°
Longitude
-179.1036°
Altitude
595.811 km
Speed
7.56 km/s
True Right ascension
16h 26m 28s
True Declination
0° 00' 00"
Sunlit
Object was in full shadow at epoch
Visualization orbit readout
Latitude
Unknown
Longitude
Unknown
Altitude
Unknown
Speed
Unknown
Apparent Right ascension
Unknown
Apparent Declination
Unknown
Sunlit
N/A
Visualization observer readout
Local Sidereal Time
10:18:24
Azimuth
Unknown
Elevation
Unknown
Doppler factor
Unknown
Orbital elements
Apogee altitude
595.675 km
Perigee altitude
576.847 km
Semi-major axis
6,964.398 km
Eccentricity
0.00135
Inclination
97.7369°
RAAN
246.6181°
Arg. of periapsis
112.15°
True anomaly
247.97186°
Mean anomaly
248.1155°
Eccentric anomaly
248.04367°
Mean motion
3.73437 °/min
Orbital period
96.4 mins
BSTAR
0.00011519
Loading maneuver chart data...
Computing Atmospheric mass density...
Loading historical data...
Loading historical data...
Loading historical data...
Loading historical data...
Loading historical data...
Loading historical data...
Loading historical data...

Documentation

Showing up to 5 results
|